Time,TemperatureF,DewpointF,PressureIn,WindDirection,WindDirectionDegrees,WindSpeedMPH,WindSpeedGustMPH,Humidity,HourlyPrecipIn,Conditions,Clouds,dailyrainin,SolarRadiationWatts/m^2,SoftwareType,DateUTC
2013-07-08 00:10:00,69.4,68.4,30.02,SSW,211,0.0,4.0,97,0.00,,,0.08,0,HR-IXPWINDi_r2_v1.2.,2013-07-08 04:10:00,
2013-07-08 00:15:00,69.3,68.3,30.02,SSW,211,0.0,4.0,97,0.00,,,0.08,0,HR-IXPWINDi_r2_v1.2.,2013-07-08 04:15:00,
2013-07-08 00:20:00,69.3,68.3,30.02,SSW,211,1.0,3.0,97,0.00,,,0.08,0,HR-IXPWINDi_r2_v1.2.,2013-07-08 04:20:00,
2013-07-08 00:25:00,69.3,68.3,30.02,SSW,211,0.0,3.0,97,0.00,,,0.08,0,HR-IXPWINDi_r2_v1.2.,2013-07-08 04:25:00,
2013-07-08 00:30:00,69.1,68.1,30.02,SSW,211,0.0,3.0,97,0.00,,,0.08,0,HR-IXPWINDi_r2_v1.2.,2013-07-08 04:30:00,
2013-07-08 00:35:00,69.1,68.1,30.02,SSW,211,0.0,3.0,97,0.00,,,0.08,0,HR-IXPWINDi_r2_v1.2.,2013-07-08 04:35:00,
2013-07-08 00:40:00,69.1,68.4,30.02,SSW,211,0.0,3.0,98,0.00,,,0.08,0,HR-IXPWINDi_r2_v1.2.,2013-07-08 04:40:00,
2013-07-08 00:46:00,69.1,68.4,30.02,SSW,211,0.0,3.0,98,0.00,,,0.08,0,HR-IXPWINDi_r2_v1.2.,2013-07-08 04:46:00,
2013-07-08 00:51:00,69.1,68.4,30.02,SSW,211,0.0,1.0,98,0.00,,,0.08,0,HR-IXPWINDi_r2_v1.2.,2013-07-08 04:51:00,
2013-07-08 00:56:00,68.9,68.2,30.02,SSW,211,1.0,3.0,98,0.00,,,0.08,0,HR-IXPWINDi_r2_v1.2.,2013-07-08 04:56:00,
2013-07-08 01:01:00,68.9,68.2,30.02,SSW,211,0.0,3.0,98,0.00,,,0.08,0,HR-IXPWINDi_r2_v1.2.,2013-07-08 05:01:00,
2013-07-08 01:06:00,68.9,68.2,30.02,SSW,211,0.0,2.0,98,0.00,,,0.00,0,HR-IXPWINDi_r2_v1.2.,2013-07-08 05:06:00,
2013-07-08 01:11:00,68.9,68.2,30.02,SSW,211,0.0,2.0,98,0.00,,,0.00,0,HR-IXPWINDi_r2_v1.2.,2013-07-08 05:11:00,
2013-07-08 01:16:00,68.9,68.2,30.02,SSW,211,0.0,1.0,98,0.00,,,0.00,0,HR-IXPWINDi_r2_v1.2.,2013-07-08 05:16:00,
2013-07-08 01:22:00,68.8,68.1,30.02,SSW,211,0.0,3.0,98,0.00,,,0.00,0,HR-IXPWINDi_r2_v1.2.,2013-07-08 05:22:00,
2013-07-08 01:27:00,68.8,68.4,30.02,SSW,211,0.0,3.0,99,0.00,,,0.00,0,HR-IXPWINDi_r2_v1.2.,2013-07-08 05:27:00,
2013-07-08 01:32:00,68.8,68.4,30.02,SSW,211,0.0,1.0,99,0.00,,,0.00,0,HR-IXPWINDi_r2_v1.2.,2013-07-08 05:32:00,
2013-07-08 01:37:00,68.8,68.4,30.02,SSW,211,0.0,2.0,99,0.00,,,0.00,0,HR-IXPWINDi_r2_v1.2.,2013-07-08 05:37:00,
2013-07-08 01:42:00,68.8,68.4,30.02,SSW,211,2.0,3.0,99,0.00,,,0.00,0,HR-IXPWINDi_r2_v1.2.,2013-07-08 05:42:00,
2013-07-08 01:48:00,68.8,68.4,30.02,WSW,238,1.0,5.0,99,0.00,,,0.00,0,HR-IXPWINDi_r2_v1.2.,2013-07-08 05:48:00,
2013-07-08 01:53:00,68.9,68.5,30.02,South,185,5.0,6.0,99,0.00,,,0.00,0,HR-IXPWINDi_r2_v1.2.,2013-07-08 05:53:00,
2013-07-08 01:58:00,68.9,68.8,30.02,SW,224,0.0,7.0,100,0.00,,,0.00,0,HR-IXPWINDi_r2_v1.2.,2013-07-08 05:58:00,
2013-07-08 02:03:00,69.1,69.0,30.01,SW,219,2.0,7.0,100,0.00,,,0.00,0,HR-IXPWINDi_r2_v1.2.,2013-07-08 06:03:00,
2013-07-08 02:09:00,69.1,69.0,30.01,SW,215,4.0,5.0,100,0.00,,,0.00,0,HR-IXPWINDi_r2_v1.2.,2013-07-08 06:09:00,
2013-07-08 02:14:00,69.1,69.0,30.01,WSW,257,1.0,7.0,100,0.00,,,0.00,0,HR-IXPWINDi_r2_v1.2.,2013-07-08 06:14:00,
2013-07-08 02:19:00,69.1,69.0,30.02,SW,234,6.0,9.0,100,0.00,,,0.00,0,HR-IXPWINDi_r2_v1.2.,2013-07-08 06:19:00,
2013-07-08 02:24:00,69.1,69.0,30.02,SW,214,3.0,11.0,100,0.00,,,0.00,0,HR-IXPWINDi_r2_v1.2.,2013-07-08 06:24:00,
2013-07-08 02:30:00,69.1,69.0,30.02,West,260,2.0,11.0,100,0.00,,,0.00,0,HR-IXPWINDi_r2_v1.2.,2013-07-08 06:30:00,
2013-07-08 02:35:00,69.1,69.0,30.02,SW,216,3.0,7.0,100,0.00,,,0.00,0,HR-IXPWINDi_r2_v1.2.,2013-07-08 06:35:00,
2013-07-08 02:40:00,69.1,69.0,30.02,SSW,201,4.0,7.0,100,0.00,,,0.00,0,HR-IXPWINDi_r2_v1.2.,2013-07-08 06:40:00,
2013-07-08 02:45:00,69.1,69.0,30.02,SW,217,0.0,7.0,100,0.00,,,0.00,0,HR-IXPWINDi_r2_v1.2.,2013-07-08 06:45:00,
2013-07-08 02:51:00,68.9,68.8,30.02,WSW,239,0.0,6.0,100,0.00,,,0.00,0,HR-IXPWINDi_r2_v1.2.,2013-07-08 06:51:00,
2013-07-08 02:56:00,68.9,68.8,30.02,SW,220,3.0,5.0,100,0.00,,,0.00,0,HR-IXPWINDi_r2_v1.2.,2013-07-08 06:56:00,
2013-07-08 03:01:00,68.8,68.7,30.02,WSW,238,0.0,5.0,100,0.00,,,0.00,0,HR-IXPWINDi_r2_v1.2.,2013-07-08 07:01:00,
2013-07-08 03:06:00,68.6,68.5,30.02,West,264,0.0,4.0,100,0.00,,,0.00,0,HR-IXPWINDi_r2_v1.2.,2013-07-08 07:06:00,
2013-07-08 03:11:00,68.6,68.5,30.02,West,264,0.0,3.0,100,0.00,,,0.00,0,HR-IXPWINDi_r2_v1.2.,2013-07-08 07:11:00,
2013-07-08 03:16:00,68.4,68.3,30.02,West,264,1.0,1.0,100,0.00,,,0.00,0,HR-IXPWINDi_r2_v1.2.,2013-07-08 07:16:00,
2013-07-08 03:21:00,68.3,68.2,30.02,WNW,300,1.0,5.0,100,0.00,,,0.00,0,HR-IXPWINDi_r2_v1.2.,2013-07-08 07:21:00,
2013-07-08 03:26:00,67.9,67.8,30.02,WNW,296,0.0,5.0,100,0.00,,,0.00,0,HR-IXPWINDi_r2_v1.2.,2013-07-08 07:26:00,
2013-07-08 03:32:00,67.6,67.2,30.02,WNW,298,2.0,4.0,99,0.00,,,0.00,0,HR-IXPWINDi_r2_v1.2.,2013-07-08 07:32:00,
2013-07-08 03:37:00,67.4,67.0,30.02,SW,225,0.0,4.0,99,0.00,,,0.00,0,HR-IXPWINDi_r2_v1.2.,2013-07-08 07:37:00,
2013-07-08 03:42:00,67.4,67.0,30.02,WNW,298,0.0,4.0,99,0.00,,,0.00,0,HR-IXPWINDi_r2_v1.2.,2013-07-08 07:42:00,
2013-07-08 03:48:00,67.4,67.0,30.01,WNW,298,0.0,4.0,99,0.00,,,0.00,0,HR-IXPWINDi_r2_v1.2.,2013-07-08 07:48:00,
2013-07-08 03:53:00,67.4,67.0,30.01,WNW,298,0.0,1.0,99,0.00,,,0.00,0,HR-IXPWINDi_r2_v1.2.,2013-07-08 07:53:00,
2013-07-08 03:58:00,67.4,67.0,30.01,WNW,298,0.0,1.0,99,0.00,,,0.00,0,HR-IXPWINDi_r2_v1.2.,2013-07-08 07:58:00,
2013-07-08 04:03:00,67.3,66.6,30.01,WNW,298,0.0,0.0,98,0.00,,,0.00,0,HR-IXPWINDi_r2_v1.2.,2013-07-08 08:03:00,
2013-07-08 04:08:00,67.3,66.6,30.01,WNW,298,0.0,0.0,98,0.00,,,0.00,0,HR-IXPWINDi_r2_v1.2.,2013-07-08 08:08:00,
2013-07-08 04:14:00,67.1,66.4,30.01,WNW,298,0.0,0.0,98,0.00,,,0.00,0,HR-IXPWINDi_r2_v1.2.,2013-07-08 08:14:00,
2013-07-08 04:19:00,67.1,66.4,30.02,WNW,298,0.0,0.0,98,0.00,,,0.00,0,HR-IXPWINDi_r2_v1.2.,2013-07-08 08:19:00,
2013-07-08 04:24:00,67.1,66.4,30.02,WNW,298,0.0,0.0,98,0.00,,,0.00,0,HR-IXPWINDi_r2_v1.2.,2013-07-08 08:24:00,
2013-07-08 04:29:00,66.9,66.2,30.02,WNW,298,0.0,0.0,98,0.00,,,0.00,0,HR-IXPWINDi_r2_v1.2.,2013-07-08 08:29:00,
2013-07-08 04:34:00,66.8,66.1,30.02,WNW,298,0.0,0.0,98,0.00,,,0.00,0,HR-IXPWINDi_r2_v1.2.,2013-07-08 08:34:00,
2013-07-08 04:40:00,66.6,65.7,30.02,WNW,298,0.0,0.0,97,0.00,,,0.00,0,HR-IXPWINDi_r2_v1.2.,2013-07-08 08:40:00,
2013-07-08 04:45:00,66.6,65.7,30.02,WNW,298,0.0,0.0,97,0.00,,,0.00,0,HR-IXPWINDi_r2_v1.2.,2013-07-08 08:45:00,
2013-07-08 04:50:00,66.4,65.5,30.01,WNW,298,0.0,0.0,97,0.00,,,0.00,0,HR-IXPWINDi_r2_v1.2.,2013-07-08 08:50:00,
2013-07-08 04:55:00,66.4,65.5,30.01,WNW,298,0.0,0.0,97,0.00,,,0.00,0,HR-IXPWINDi_r2_v1.2.,2013-07-08 08:55:00,
2013-07-08 05:00:00,66.3,65.4,30.01,WNW,298,0.0,0.0,97,0.00,,,0.00,0,HR-IXPWINDi_r2_v1.2.,2013-07-08 09:00:00,
2013-07-08 05:05:00,66.3,65.4,30.02,WNW,298,0.0,0.0,97,0.00,,,0.00,0,HR-IXPWINDi_r2_v1.2.,2013-07-08 09:05:00,
2013-07-08 05:10:00,66.1,65.2,30.02,WNW,298,0.0,0.0,97,0.00,,,0.00,0,HR-IXPWINDi_r2_v1.2.,2013-07-08 09:10:00,
2013-07-08 05:15:00,66.0,65.1,30.02,WNW,298,0.0,0.0,97,0.00,,,0.00,0,HR-IXPWINDi_r2_v1.2.,2013-07-08 09:15:00,
2013-07-08 05:21:00,65.6,64.7,30.02,WNW,298,0.0,0.0,97,0.00,,,0.00,0,HR-IXPWINDi_r2_v1.2.,2013-07-08 09:21:00,
2013-07-08 05:26:00,65.6,64.7,30.02,WNW,298,0.0,1.0,97,0.00,,,0.00,0,HR-IXPWINDi_r2_v1.2.,2013-07-08 09:26:00,
2013-07-08 05:31:00,65.5,64.6,30.02,WNW,298,0.0,1.0,97,0.00,,,0.00,0,HR-IXPWINDi_r2_v1.2.,2013-07-08 09:31:00,
2013-07-08 05:36:00,65.3,64.4,30.02,WNW,298,0.0,0.0,97,0.00,,,0.00,0,HR-IXPWINDi_r2_v1.2.,2013-07-08 09:36:00,
2013-07-08 05:41:00,65.2,64.6,30.02,WNW,298,0.0,0.0,98,0.00,,,0.00,0,HR-IXPWINDi_r2_v1.2.,2013-07-08 09:41:00,
2013-07-08 05:46:00,65.0,64.4,30.02,WNW,298,0.0,0.0,98,0.00,,,0.00,0,HR-IXPWINDi_r2_v1.2.,2013-07-08 09:46:00,
2013-07-08 05:52:00,64.8,64.2,30.03,WNW,298,0.0,0.0,98,0.00,,,0.00,0,HR-IXPWINDi_r2_v1.2.,2013-07-08 09:52:00,
2013-07-08 05:57:00,64.8,64.2,30.03,WNW,298,0.0,0.0,98,0.00,,,0.00,0,HR-IXPWINDi_r2_v1.2.,2013-07-08 09:57:00,
2013-07-08 06:02:00,64.7,64.1,30.03,WNW,298,0.0,0.0,98,0.00,,,0.00,0,HR-IXPWINDi_r2_v1.2.,2013-07-08 10:02:00,
2013-07-08 06:08:00,64.5,63.9,30.03,WNW,298,0.0,0.0,98,0.00,,,0.00,5,HR-IXPWINDi_r2_v1.2.,2013-07-08 10:08:00,
2013-07-08 06:13:00,64.3,63.7,30.03,WNW,298,0.0,0.0,98,0.00,,,0.00,7,HR-IXPWINDi_r2_v1.2.,2013-07-08 10:13:00,
2013-07-08 06:18:00,64.3,63.7,30.04,WNW,298,0.0,0.0,98,0.00,,,0.00,9,HR-IXPWINDi_r2_v1.2.,2013-07-08 10:18:00,
2013-07-08 06:23:00,64.2,63.6,30.04,WNW,298,0.0,0.0,98,0.00,,,0.00,9,HR-IXPWINDi_r2_v1.2.,2013-07-08 10:23:00,
2013-07-08 06:28:00,64.2,63.8,30.04,WNW,298,0.0,0.0,99,0.00,,,0.00,12,HR-IXPWINDi_r2_v1.2.,2013-07-08 10:28:00,
2013-07-08 06:33:00,64.2,63.8,30.04,WNW,298,0.0,0.0,99,0.00,,,0.00,18,HR-IXPWINDi_r2_v1.2.,2013-07-08 10:33:00,
2013-07-08 06:38:00,64.0,63.6,30.04,WNW,298,0.0,0.0,99,0.00,,,0.00,18,HR-IXPWINDi_r2_v1.2.,2013-07-08 10:38:00,
2013-07-08 06:44:00,64.0,63.6,30.04,WNW,298,0.0,0.0,99,0.00,,,0.00,21,HR-IXPWINDi_r2_v1.2.,2013-07-08 10:44:00,
2013-07-08 06:49:00,64.2,63.8,30.04,WNW,298,0.0,0.0,99,0.00,,,0.01,35,HR-IXPWINDi_r2_v1.2.,2013-07-08 10:49:00,
2013-07-08 06:54:00,64.2,63.8,30.04,WNW,298,0.0,0.0,99,0.00,,,0.01,44,HR-IXPWINDi_r2_v1.2.,2013-07-08 10:54:00,
2013-07-08 06:59:00,64.3,64.2,30.04,WNW,298,0.0,1.0,100,0.00,,,0.01,33,HR-IXPWINDi_r2_v1.2.,2013-07-08 10:59:00,
2013-07-08 07:04:00,64.5,64.4,30.04,WNW,298,1.0,2.0,100,0.00,,,0.01,51,HR-IXPWINDi_r2_v1.2.,2013-07-08 11:04:00,
2013-07-08 07:09:00,64.7,64.6,30.04,WNW,298,0.0,2.0,100,0.00,,,0.01,40,HR-IXPWINDi_r2_v1.2.,2013-07-08 11:09:00,
2013-07-08 07:15:00,64.8,64.7,30.04,WNW,298,0.0,2.0,100,0.00,,,0.01,42,HR-IXPWINDi_r2_v1.2.,2013-07-08 11:15:00,
2013-07-08 07:20:00,65.0,64.9,30.04,WNW,298,0.0,1.0,100,0.00,,,0.01,76,HR-IXPWINDi_r2_v1.2.,2013-07-08 11:20:00,
2013-07-08 07:25:00,65.0,64.9,30.04,NW,307,0.0,3.0,100,0.00,,,0.01,70,HR-IXPWINDi_r2_v1.2.,2013-07-08 11:25:00,
2013-07-08 07:30:00,65.0,64.9,30.04,West,281,0.0,5.0,100,0.00,,,0.01,47,HR-IXPWINDi_r2_v1.2.,2013-07-08 11:30:00,
2013-07-08 07:35:00,65.0,64.9,30.05,West,268,0.0,5.0,100,0.00,,,0.01,46,HR-IXPWINDi_r2_v1.2.,2013-07-08 11:35:00,
2013-07-08 07:41:00,65.0,64.9,30.05,West,268,0.0,3.0,100,0.00,,,0.01,54,HR-IXPWINDi_r2_v1.2.,2013-07-08 11:41:00,
2013-07-08 07:46:00,65.0,64.9,30.05,SW,222,4.0,4.0,100,0.00,,,0.01,76,HR-IXPWINDi_r2_v1.2.,2013-07-08 11:46:00,
2013-07-08 07:51:00,65.2,65.1,30.05,SSW,202,1.0,5.0,100,0.00,,,0.01,104,HR-IXPWINDi_r2_v1.2.,2013-07-08 11:51:00,
2013-07-08 07:56:00,65.3,65.2,30.05,SSW,210,6.0,7.0,100,0.00,,,0.01,67,HR-IXPWINDi_r2_v1.2.,2013-07-08 11:56:00,
2013-07-08 08:01:00,65.5,65.1,30.05,SW,220,1.0,7.0,99,0.00,,,0.01,58,HR-IXPWINDi_r2_v1.2.,2013-07-08 12:01:00,
2013-07-08 08:07:00,65.6,65.2,30.05,WSW,256,2.0,6.0,99,0.00,,,0.01,72,HR-IXPWINDi_r2_v1.2.,2013-07-08 12:07:00,
2013-07-08 08:12:00,65.8,65.4,30.05,SW,231,1.0,6.0,99,0.00,,,0.01,63,HR-IXPWINDi_r2_v1.2.,2013-07-08 12:12:00,
2013-07-08 08:17:00,66.1,65.7,30.05,WNW,295,0.0,7.0,99,0.00,,,0.01,70,HR-IXPWINDi_r2_v1.2.,2013-07-08 12:17:00,
2013-07-08 08:22:00,66.4,65.8,30.05,SSW,205,0.0,8.0,98,0.00,,,0.01,67,HR-IXPWINDi_r2_v1.2.,2013-07-08 12:22:00,
2013-07-08 08:28:00,66.9,66.0,30.05,SW,228,0.0,9.0,97,0.00,,,0.01,86,HR-IXPWINDi_r2_v1.2.,2013-07-08 12:28:00,
2013-07-08 08:33:00,67.3,66.4,30.05,SW,228,5.0,10.0,97,0.00,,,0.01,70,HR-IXPWINDi_r2_v1.2.,2013-07-08 12:33:00,
2013-07-08 08:38:00,67.6,66.0,30.05,WNW,294,5.0,10.0,95,0.00,,,0.01,72,HR-IXPWINDi_r2_v1.2.,2013-07-08 12:38:00,
2013-07-08 08:43:00,68.1,66.2,30.05,WSW,239,3.0,10.0,94,0.00,,,0.01,77,HR-IXPWINDi_r2_v1.2.,2013-07-08 12:43:00,
2013-07-08 08:48:00,68.6,66.4,30.06,SSW,196,5.0,10.0,93,0.00,,,0.01,77,HR-IXPWINDi_r2_v1.2.,2013-07-08 12:48:00,
2013-07-08 08:54:00,68.9,66.4,30.06,SW,217,1.0,10.0,92,0.00,,,0.01,98,HR-IXPWINDi_r2_v1.2.,2013-07-08 12:54:00,
2013-07-08 08:59:00,69.3,66.2,30.06,NW,315,2.0,10.0,90,0.00,,,0.01,162,HR-IXPWINDi_r2_v1.2.,2013-07-08 12:59:00,
2013-07-08 09:04:00,69.6,66.1,30.06,SSW,212,2.0,10.0,89,0.00,,,0.01,160,HR-IXPWINDi_r2_v1.2.,2013-07-08 13:04:00,
2013-07-08 09:09:00,69.9,66.1,30.06,WNW,290,6.0,10.0,88,0.00,,,0.01,183,HR-IXPWINDi_r2_v1.2.,2013-07-08 13:09:00,
2013-07-08 09:14:00,70.4,66.6,30.06,WNW,295,1.0,10.0,88,0.00,,,0.01,160,HR-IXPWINDi_r2_v1.2.,2013-07-08 13:14:00,
2013-07-08 09:19:00,70.4,65.6,30.07,SW,222,5.0,14.0,85,0.00,,,0.01,192,HR-IXPWINDi_r2_v1.2.,2013-07-08 13:19:00,
2013-07-08 09:24:00,70.8,66.0,30.07,SSW,208,4.0,14.0,85,0.00,,,0.01,497,HR-IXPWINDi_r2_v1.2.,2013-07-08 13:24:00,
2013-07-08 09:29:00,71.1,66.3,30.07,WNW,295,2.0,12.0,85,0.00,,,0.01,510,HR-IXPWINDi_r2_v1.2.,2013-07-08 13:29:00,
2013-07-08 09:35:00,71.6,66.4,30.06,SW,234,1.0,6.0,84,0.00,,,0.01,506,HR-IXPWINDi_r2_v1.2.,2013-07-08 13:35:00,
2013-07-08 09:40:00,71.8,66.3,30.06,SW,234,6.0,9.0,83,0.00,,,0.01,534,HR-IXPWINDi_r2_v1.2.,2013-07-08 13:40:00,
2013-07-08 09:45:00,72.1,66.2,30.06,WSW,250,5.0,9.0,82,0.00,,,0.01,550,HR-IXPWINDi_r2_v1.2.,2013-07-08 13:45:00,
2013-07-08 09:50:00,72.7,66.8,30.06,West,262,0.0,9.0,82,0.00,,,0.01,554,HR-IXPWINDi_r2_v1.2.,2013-07-08 13:50:00,
2013-07-08 09:56:00,73.0,67.1,30.06,SW,218,6.0,9.0,82,0.00,,,0.01,577,HR-IXPWINDi_r2_v1.2.,2013-07-08 13:56:00,
2013-07-08 10:01:00,73.3,67.1,30.06,NW,305,2.0,10.0,81,0.00,,,0.01,601,HR-IXPWINDi_r2_v1.2.,2013-07-08 14:01:00,
2013-07-08 10:06:00,73.5,67.3,30.06,SW,222,4.0,10.0,81,0.00,,,0.01,617,HR-IXPWINDi_r2_v1.2.,2013-07-08 14:06:00,
2013-07-08 10:11:00,73.9,67.3,30.06,SSW,209,3.0,10.0,80,0.00,,,0.01,668,HR-IXPWINDi_r2_v1.2.,2013-07-08 14:11:00,
2013-07-08 10:16:00,74.2,67.6,30.06,SW,231,2.0,10.0,80,0.00,,,0.01,729,HR-IXPWINDi_r2_v1.2.,2013-07-08 14:16:00,
2013-07-08 10:21:00,74.6,68.0,30.06,WSW,257,4.0,10.0,80,0.00,,,0.01,826,HR-IXPWINDi_r2_v1.2.,2013-07-08 14:21:00,
2013-07-08 10:26:00,74.7,68.1,30.06,SSW,207,3.0,11.0,80,0.00,,,0.01,724,HR-IXPWINDi_r2_v1.2.,2013-07-08 14:26:00,
2013-07-08 10:31:00,74.9,67.9,30.06,SW,220,2.0,11.0,79,0.00,,,0.01,689,HR-IXPWINDi_r2_v1.2.,2013-07-08 14:31:00,
2013-07-08 10:37:00,75.1,68.1,30.06,SW,234,3.0,9.0,79,0.00,,,0.01,429,HR-IXPWINDi_r2_v1.2.,2013-07-08 14:37:00,
2013-07-08 10:42:00,75.1,68.1,30.06,SW,229,1.0,9.0,79,0.00,,,0.01,185,HR-IXPWINDi_r2_v1.2.,2013-07-08 14:42:00,
2013-07-08 10:47:00,75.4,68.7,30.05,SW,219,1.0,9.0,80,0.00,,,0.01,795,HR-IXPWINDi_r2_v1.2.,2013-07-08 14:47:00,
2013-07-08 10:52:00,75.6,68.9,30.05,SSW,199,4.0,9.0,80,0.00,,,0.01,752,HR-IXPWINDi_r2_v1.2.,2013-07-08 14:52:00,
2013-07-08 10:57:00,76.1,69.4,30.05,SW,236,0.0,9.0,80,0.00,,,0.01,867,HR-IXPWINDi_r2_v1.2.,2013-07-08 14:57:00,
2013-07-08 11:02:00,76.3,68.9,30.05,SSW,203,6.0,10.0,78,0.00,,,0.01,338,HR-IXPWINDi_r2_v1.2.,2013-07-08 15:02:00,
2013-07-08 11:07:00,76.1,68.3,30.05,SW,222,4.0,10.0,77,0.00,,,0.01,279,HR-IXPWINDi_r2_v1.2.,2013-07-08 15:07:00,
2013-07-08 11:13:00,76.1,68.3,30.05,WNW,297,0.0,9.0,77,0.00,,,0.01,292,HR-IXPWINDi_r2_v1.2.,2013-07-08 15:13:00,
2013-07-08 11:18:00,76.0,68.6,30.06,West,274,2.0,9.0,78,0.00,,,0.01,162,HR-IXPWINDi_r2_v1.2.,2013-07-08 15:18:00,
2013-07-08 11:23:00,76.0,68.6,30.06,WNW,295,6.0,10.0,78,0.00,,,0.01,281,HR-IXPWINDi_r2_v1.2.,2013-07-08 15:23:00,
2013-07-08 11:28:00,76.0,69.0,30.06,WNW,302,2.0,10.0,79,0.00,,,0.01,854,HR-IXPWINDi_r2_v1.2.,2013-07-08 15:28:00,
2013-07-08 11:34:00,76.3,68.9,30.06,WNW,293,6.0,10.0,78,0.00,,,0.01,311,HR-IXPWINDi_r2_v1.2.,2013-07-08 15:34:00,
2013-07-08 11:39:00,76.3,68.1,30.06,SSW,207,5.0,10.0,76,0.00,,,0.01,188,HR-IXPWINDi_r2_v1.2.,2013-07-08 15:39:00,
2013-07-08 11:44:00,76.3,68.5,30.06,SW,226,4.0,10.0,77,0.00,,,0.01,925,HR-IXPWINDi_r2_v1.2.,2013-07-08 15:44:00,
2013-07-08 11:49:00,76.3,68.1,30.05,SW,232,3.0,9.0,76,0.00,,,0.01,151,HR-IXPWINDi_r2_v1.2.,2013-07-08 15:49:00,
2013-07-08 11:54:00,76.1,67.9,30.05,SSW,199,1.0,9.0,76,0.00,,,0.01,942,HR-IXPWINDi_r2_v1.2.,2013-07-08 15:54:00,
2013-07-08 12:00:00,76.7,68.9,30.05,WNW,295,1.0,9.0,77,0.00,,,0.01,998,HR-IXPWINDi_r2_v1.2.,2013-07-08 16:00:00,
2013-07-08 12:05:00,76.8,68.2,30.05,SW,231,6.0,11.0,75,0.00,,,0.01,1016,HR-IXPWINDi_r2_v1.2.,2013-07-08 16:05:00,
2013-07-08 12:10:00,77.0,68.8,30.05,SSW,201,3.0,11.0,76,0.00,,,0.01,1039,HR-IXPWINDi_r2_v1.2.,2013-07-08 16:10:00,
2013-07-08 12:16:00,77.2,68.6,30.05,SSW,202,5.0,11.0,75,0.00,,,0.01,234,HR-IXPWINDi_r2_v1.2.,2013-07-08 16:16:00,
2013-07-08 12:21:00,77.2,68.2,30.05,SW,222,10.0,11.0,74,0.00,,,0.01,914,HR-IXPWINDi_r2_v1.2.,2013-07-08 16:21:00,
2013-07-08 12:26:00,77.6,68.6,30.05,NW,310,4.0,11.0,74,0.00,,,0.01,881,HR-IXPWINDi_r2_v1.2.,2013-07-08 16:26:00,
2013-07-08 12:31:00,77.9,68.9,30.05,SW,219,6.0,11.0,74,0.00,,,0.01,879,HR-IXPWINDi_r2_v1.2.,2013-07-08 16:31:00,
2013-07-08 12:37:00,78.1,68.7,30.05,SW,230,1.0,13.0,73,0.00,,,0.01,935,HR-IXPWINDi_r2_v1.2.,2013-07-08 16:37:00,
2013-07-08 12:42:00,78.3,68.1,30.05,NW,317,2.0,13.0,71,0.00,,,0.01,468,HR-IXPWINDi_r2_v1.2.,2013-07-08 16:42:00,
2013-07-08 12:47:00,78.5,68.7,30.04,West,272,8.0,10.0,72,0.00,,,0.01,956,HR-IXPWINDi_r2_v1.2.,2013-07-08 16:47:00,
2013-07-08 12:53:00,78.6,67.9,30.04,WNW,298,2.0,10.0,70,0.00,,,0.01,770,HR-IXPWINDi_r2_v1.2.,2013-07-08 16:53:00,
2013-07-08 12:58:00,78.6,68.4,30.04,SSW,201,5.0,9.0,71,0.00,,,0.01,192,HR-IXPWINDi_r2_v1.2.,2013-07-08 16:58:00,
2013-07-08 13:03:00,78.8,69.0,30.04,SSW,198,2.0,9.0,72,0.00,,,0.01,914,HR-IXPWINDi_r2_v1.2.,2013-07-08 17:03:00,
2013-07-08 13:09:00,79.2,68.9,30.04,NW,309,4.0,10.0,71,0.00,,,0.01,963,HR-IXPWINDi_r2_v1.2.,2013-07-08 17:09:00,
2013-07-08 13:14:00,79.6,68.5,30.04,SSW,212,6.0,10.0,69,0.00,,,0.01,1016,HR-IXPWINDi_r2_v1.2.,2013-07-08 17:14:00,
2013-07-08 13:19:00,79.9,68.3,30.03,SW,226,1.0,10.0,68,0.00,,,0.01,388,HR-IXPWINDi_r2_v1.2.,2013-07-08 17:19:00,
2013-07-08 13:24:00,80.1,68.1,30.03,NW,305,10.0,11.0,67,0.00,,,0.01,1069,HR-IXPWINDi_r2_v1.2.,2013-07-08 17:24:00,
2013-07-08 13:29:00,80.1,69.0,30.03,SSW,198,5.0,11.0,69,0.00,,,0.01,960,HR-IXPWINDi_r2_v1.2.,2013-07-08 17:29:00,
2013-07-08 13:34:00,80.3,69.6,30.03,West,260,2.0,10.0,70,0.00,,,0.01,1042,HR-IXPWINDi_r2_v1.2.,2013-07-08 17:34:00,
2013-07-08 13:39:00,80.3,68.3,30.03,NW,304,4.0,11.0,67,0.00,,,0.01,1069,HR-IXPWINDi_r2_v1.2.,2013-07-08 17:39:00,
2013-07-08 13:44:00,80.3,68.3,30.03,NW,312,6.0,11.0,67,0.00,,,0.01,1060,HR-IXPWINDi_r2_v1.2.,2013-07-08 17:44:00,
2013-07-08 13:49:00,80.3,68.3,30.03,WNW,293,6.0,13.0,67,0.00,,,0.01,960,HR-IXPWINDi_r2_v1.2.,2013-07-08 17:49:00,
2013-07-08 13:54:00,80.3,68.7,30.03,NW,316,2.0,13.0,68,0.00,,,0.01,211,HR-IXPWINDi_r2_v1.2.,2013-07-08 17:54:00,
2013-07-08 14:00:00,80.1,69.0,30.03,SW,220,4.0,11.0,69,0.00,,,0.01,993,HR-IXPWINDi_r2_v1.2.,2013-07-08 18:00:00,
2013-07-08 14:05:00,79.9,68.3,30.03,SW,227,2.0,11.0,68,0.00,,,0.01,1021,HR-IXPWINDi_r2_v1.2.,2013-07-08 18:05:00,
2013-07-08 14:10:00,79.9,67.9,30.03,South,189,4.0,9.0,67,0.00,,,0.01,455,HR-IXPWINDi_r2_v1.2.,2013-07-08 18:10:00,
2013-07-08 14:15:00,80.3,69.1,30.03,WNW,284,1.0,12.0,69,0.00,,,0.01,953,HR-IXPWINDi_r2_v1.2.,2013-07-08 18:15:00,
2013-07-08 14:21:00,80.7,68.7,30.02,SW,214,5.0,12.0,67,0.00,,,0.01,918,HR-IXPWINDi_r2_v1.2.,2013-07-08 18:21:00,
2013-07-08 14:26:00,81.1,69.1,30.02,SSW,198,4.0,11.0,67,0.00,,,0.01,211,HR-IXPWINDi_r2_v1.2.,2013-07-08 18:26:00,
2013-07-08 14:31:00,81.4,69.3,30.02,SSW,205,4.0,11.0,67,0.00,,,0.01,309,HR-IXPWINDi_r2_v1.2.,2013-07-08 18:31:00,
2013-07-08 14:36:00,81.4,67.5,30.01,SSW,212,1.0,9.0,63,0.00,,,0.01,209,HR-IXPWINDi_r2_v1.2.,2013-07-08 18:36:00,
2013-07-08 14:41:00,81.4,68.5,30.01,SSW,209,2.0,7.0,65,0.00,,,0.01,257,HR-IXPWINDi_r2_v1.2.,2013-07-08 18:41:00,
2013-07-08 14:46:00,81.4,68.9,30.01,NW,307,8.0,9.0,66,0.00,,,0.01,250,HR-IXPWINDi_r2_v1.2.,2013-07-08 18:46:00,
2013-07-08 14:52:00,81.1,68.6,30.01,SW,231,3.0,10.0,66,0.00,,,0.01,262,HR-IXPWINDi_r2_v1.2.,2013-07-08 18:52:00,
2013-07-08 14:57:00,81.1,68.6,30.01,SW,218,2.0,10.0,66,0.00,,,0.01,313,HR-IXPWINDi_r2_v1.2.,2013-07-08 18:57:00,
2013-07-08 15:02:00,80.9,68.0,30.01,WSW,248,0.0,12.0,65,0.00,,,0.01,193,HR-IXPWINDi_r2_v1.2.,2013-07-08 19:02:00,
2013-07-08 15:07:00,80.9,68.9,30.01,WNW,302,5.0,12.0,67,0.00,,,0.01,953,HR-IXPWINDi_r2_v1.2.,2013-07-08 19:07:00,
2013-07-08 15:13:00,80.9,68.4,30.01,SW,222,4.0,11.0,66,0.00,,,0.01,248,HR-IXPWINDi_r2_v1.2.,2013-07-08 19:13:00,
2013-07-08 15:18:00,81.2,68.3,30.00,SSW,200,2.0,11.0,65,0.00,,,0.01,856,HR-IXPWINDi_r2_v1.2.,2013-07-08 19:18:00,
2013-07-08 15:23:00,81.6,69.1,30.00,WNW,284,6.0,7.0,66,0.00,,,0.01,882,HR-IXPWINDi_r2_v1.2.,2013-07-08 19:23:00,
2013-07-08 15:28:00,81.8,67.9,30.00,West,281,1.0,9.0,63,0.00,,,0.01,856,HR-IXPWINDi_r2_v1.2.,2013-07-08 19:28:00,
2013-07-08 15:34:00,81.8,68.8,30.00,SW,232,6.0,12.0,65,0.00,,,0.01,828,HR-IXPWINDi_r2_v1.2.,2013-07-08 19:34:00,
2013-07-08 15:39:00,82.0,69.9,30.00,South,178,2.0,13.0,67,0.00,,,0.01,831,HR-IXPWINDi_r2_v1.2.,2013-07-08 19:39:00,
2013-07-08 15:44:00,82.4,68.5,30.00,WNW,293,5.0,13.0,63,0.00,,,0.01,251,HR-IXPWINDi_r2_v1.2.,2013-07-08 19:44:00,
2013-07-08 15:49:00,82.4,69.4,29.99,SW,219,1.0,12.0,65,0.00,,,0.01,838,HR-IXPWINDi_r2_v1.2.,2013-07-08 19:49:00,
2013-07-08 15:54:00,82.6,69.6,29.99,SW,231,5.0,9.0,65,0.00,,,0.01,796,HR-IXPWINDi_r2_v1.2.,2013-07-08 19:54:00,
2013-07-08 15:59:00,82.8,69.3,29.99,SW,214,6.0,10.0,64,0.00,,,0.01,761,HR-IXPWINDi_r2_v1.2.,2013-07-08 19:59:00,
2013-07-08 16:05:00,82.8,68.4,29.99,NW,315,2.0,13.0,62,0.00,,,0.01,251,HR-IXPWINDi_r2_v1.2.,2013-07-08 20:05:00,
2013-07-08 16:10:00,82.4,68.5,29.99,SW,229,10.0,13.0,63,0.00,,,0.01,151,HR-IXPWINDi_r2_v1.2.,2013-07-08 20:10:00,
2013-07-08 16:15:00,82.0,68.1,29.99,SW,219,7.0,13.0,63,0.00,,,0.01,204,HR-IXPWINDi_r2_v1.2.,2013-07-08 20:15:00,
2013-07-08 16:20:00,81.6,68.2,29.99,NW,314,1.0,11.0,64,0.00,,,0.01,243,HR-IXPWINDi_r2_v1.2.,2013-07-08 20:20:00,
2013-07-08 16:26:00,81.6,68.6,29.99,West,276,2.0,11.0,65,0.00,,,0.01,311,HR-IXPWINDi_r2_v1.2.,2013-07-08 20:26:00,
2013-07-08 16:31:00,81.6,69.1,29.99,NW,306,1.0,10.0,66,0.00,,,0.01,156,HR-IXPWINDi_r2_v1.2.,2013-07-08 20:31:00,
2013-07-08 16:36:00,81.4,68.5,29.99,SW,231,2.0,11.0,65,0.00,,,0.01,195,HR-IXPWINDi_r2_v1.2.,2013-07-08 20:36:00,
2013-07-08 16:41:00,81.2,68.7,29.99,SW,229,5.0,11.0,66,0.00,,,0.01,236,HR-IXPWINDi_r2_v1.2.,2013-07-08 20:41:00,
2013-07-08 16:46:00,81.2,68.7,29.99,SSW,210,3.0,8.0,66,0.00,,,0.01,260,HR-IXPWINDi_r2_v1.2.,2013-07-08 20:46:00,
2013-07-08 16:52:00,81.6,70.0,29.99,WSW,253,1.0,10.0,68,0.00,,,0.01,687,HR-IXPWINDi_r2_v1.2.,2013-07-08 20:52:00,
2013-07-08 16:57:00,82.0,69.5,29.99,NW,316,3.0,12.0,66,0.00,,,0.01,645,HR-IXPWINDi_r2_v1.2.,2013-07-08 20:57:00,
2013-07-08 17:02:00,82.4,69.4,29.99,NW,314,0.0,12.0,65,0.00,,,0.01,315,HR-IXPWINDi_r2_v1.2.,2013-07-08 21:02:00,
2013-07-08 17:07:00,82.8,69.3,29.99,WNW,284,7.0,11.0,64,0.00,,,0.01,617,HR-IXPWINDi_r2_v1.2.,2013-07-08 21:07:00,
2013-07-08 17:12:00,83.0,69.1,29.99,SW,230,7.0,11.0,63,0.00,,,0.01,482,HR-IXPWINDi_r2_v1.2.,2013-07-08 21:12:00,
2013-07-08 17:18:00,83.2,69.7,29.99,WNW,288,2.0,11.0,64,0.00,,,0.01,478,HR-IXPWINDi_r2_v1.2.,2013-07-08 21:18:00,
2013-07-08 17:23:00,83.2,69.2,29.99,WSW,256,4.0,11.0,63,0.00,,,0.01,536,HR-IXPWINDi_r2_v1.2.,2013-07-08 21:23:00,
2013-07-08 17:28:00,83.4,69.0,29.99,SSW,201,6.0,10.0,62,0.00,,,0.01,388,HR-IXPWINDi_r2_v1.2.,2013-07-08 21:28:00,
2013-07-08 17:33:00,83.4,69.4,29.99,SW,234,6.0,10.0,63,0.00,,,0.01,504,HR-IXPWINDi_r2_v1.2.,2013-07-08 21:33:00,
2013-07-08 17:38:00,83.4,69.9,29.99,WNW,303,3.0,10.0,64,0.00,,,0.01,142,HR-IXPWINDi_r2_v1.2.,2013-07-08 21:38:00,
2013-07-08 17:43:00,83.2,69.2,29.99,SW,231,5.0,10.0,63,0.00,,,0.01,144,HR-IXPWINDi_r2_v1.2.,2013-07-08 21:43:00,
2013-07-08 17:49:00,82.6,68.7,29.99,West,279,9.0,11.0,63,0.00,,,0.01,163,HR-IXPWINDi_r2_v1.2.,2013-07-08 21:49:00,
2013-07-08 17:54:00,82.2,68.8,29.99,SW,215,3.0,11.0,64,0.00,,,0.01,127,HR-IXPWINDi_r2_v1.2.,2013-07-08 21:54:00,
2013-07-08 17:59:00,82.0,69.0,29.99,SW,222,1.0,11.0,65,0.00,,,0.01,308,HR-IXPWINDi_r2_v1.2.,2013-07-08 21:59:00,
2013-07-08 18:04:00,82.2,69.2,29.98,SW,224,2.0,7.0,65,0.00,,,0.01,142,HR-IXPWINDi_r2_v1.2.,2013-07-08 22:04:00,
2013-07-08 18:09:00,82.2,69.2,29.98,SW,228,2.0,7.0,65,0.00,,,0.01,163,HR-IXPWINDi_r2_v1.2.,2013-07-08 22:09:00,
2013-07-08 18:14:00,82.2,69.7,29.98,WNW,293,2.0,9.0,66,0.00,,,0.01,155,HR-IXPWINDi_r2_v1.2.,2013-07-08 22:14:00,
2013-07-08 18:20:00,82.2,69.2,29.98,SW,220,4.0,9.0,65,0.00,,,0.01,86,HR-IXPWINDi_r2_v1.2.,2013-07-08 22:20:00,
2013-07-08 18:25:00,82.0,69.5,29.98,SW,225,2.0,10.0,66,0.00,,,0.01,169,HR-IXPWINDi_r2_v1.2.,2013-07-08 22:25:00,
2013-07-08 18:30:00,82.0,69.5,29.98,WSW,238,1.0,10.0,66,0.00,,,0.01,162,HR-IXPWINDi_r2_v1.2.,2013-07-08 22:30:00,
2013-07-08 18:35:00,82.0,69.5,29.98,SW,231,5.0,10.0,66,0.00,,,0.01,123,HR-IXPWINDi_r2_v1.2.,2013-07-08 22:35:00,
2013-07-08 18:41:00,81.8,69.3,29.98,WNW,302,6.0,10.0,66,0.00,,,0.01,93,HR-IXPWINDi_r2_v1.2.,2013-07-08 22:41:00,
2013-07-08 18:46:00,81.6,69.5,29.98,WSW,253,0.0,7.0,67,0.00,,,0.01,76,HR-IXPWINDi_r2_v1.2.,2013-07-08 22:46:00,
2013-07-08 18:51:00,81.2,69.6,29.98,WSW,258,1.0,12.0,68,0.00,,,0.01,125,HR-IXPWINDi_r2_v1.2.,2013-07-08 22:51:00,
2013-07-08 18:56:00,81.1,69.5,29.98,SW,233,3.0,12.0,68,0.00,,,0.01,160,HR-IXPWINDi_r2_v1.2.,2013-07-08 22:56:00,
2013-07-08 19:01:00,81.1,69.5,29.98,SW,214,2.0,11.0,68,0.00,,,0.01,93,HR-IXPWINDi_r2_v1.2.,2013-07-08 23:01:00,
2013-07-08 19:06:00,80.9,69.7,29.98,West,279,2.0,11.0,69,0.00,,,0.01,84,HR-IXPWINDi_r2_v1.2.,2013-07-08 23:06:00,
2013-07-08 19:12:00,80.9,69.7,29.98,SW,223,1.0,12.0,69,0.00,,,0.01,84,HR-IXPWINDi_r2_v1.2.,2013-07-08 23:12:00,
2013-07-08 19:17:00,80.7,69.5,29.98,SSW,207,5.0,12.0,69,0.00,,,0.01,76,HR-IXPWINDi_r2_v1.2.,2013-07-08 23:17:00,
2013-07-08 19:22:00,80.5,69.8,29.98,SW,236,0.0,8.0,70,0.00,,,0.01,72,HR-IXPWINDi_r2_v1.2.,2013-07-08 23:22:00,
2013-07-08 19:27:00,80.5,70.2,29.98,SW,233,0.0,6.0,71,0.00,,,0.01,60,HR-IXPWINDi_r2_v1.2.,2013-07-08 23:27:00,
2013-07-08 19:33:00,80.3,70.0,29.99,SW,229,2.0,4.0,71,0.00,,,0.01,53,HR-IXPWINDi_r2_v1.2.,2013-07-08 23:33:00,
2013-07-08 19:38:00,80.3,70.0,29.99,SW,229,1.0,5.0,71,0.00,,,0.01,54,HR-IXPWINDi_r2_v1.2.,2013-07-08 23:38:00,
2013-07-08 19:43:00,80.1,69.8,29.99,SSW,211,2.0,5.0,71,0.00,,,0.01,49,HR-IXPWINDi_r2_v1.2.,2013-07-08 23:43:00,
2013-07-08 19:48:00,80.1,70.2,30.00,SSW,212,0.0,5.0,72,0.00,,,0.01,46,HR-IXPWINDi_r2_v1.2.,2013-07-08 23:48:00,
2013-07-08 19:54:00,79.9,70.0,30.00,SSW,212,4.0,4.0,72,0.00,,,0.01,42,HR-IXPWINDi_r2_v1.2.,2013-07-08 23:54:00,
2013-07-08 19:59:00,79.9,70.4,30.00,SW,215,1.0,5.0,73,0.00,,,0.01,40,HR-IXPWINDi_r2_v1.2.,2013-07-08 23:59:00,
2013-07-08 20:04:00,79.8,70.3,30.00,SW,219,2.0,5.0,73,0.00,,,0.01,37,HR-IXPWINDi_r2_v1.2.,2013-07-09 00:04:00,
2013-07-08 20:09:00,79.8,70.7,30.00,SW,219,0.0,3.0,74,0.00,,,0.01,33,HR-IXPWINDi_r2_v1.2.,2013-07-09 00:09:00,
2013-07-08 20:14:00,79.6,70.5,30.00,SW,219,0.0,2.0,74,0.00,,,0.01,30,HR-IXPWINDi_r2_v1.2.,2013-07-09 00:14:00,
2013-07-08 20:20:00,79.4,70.3,30.00,SW,219,0.0,2.0,74,0.00,,,0.01,23,HR-IXPWINDi_r2_v1.2.,2013-07-09 00:20:00,
2013-07-08 20:25:00,79.2,70.5,30.00,SW,219,0.0,1.0,75,0.00,,,0.01,14,HR-IXPWINDi_r2_v1.2.,2013-07-09 00:25:00,
2013-07-08 20:30:00,79.2,70.5,30.00,SW,219,0.0,2.0,75,0.00,,,0.01,11,HR-IXPWINDi_r2_v1.2.,2013-07-09 00:30:00,
2013-07-08 20:36:00,79.0,70.7,30.00,SW,219,0.0,2.0,76,0.00,,,0.01,7,HR-IXPWINDi_r2_v1.2.,2013-07-09 00:36:00,
2013-07-08 20:41:00,78.8,70.5,30.00,SW,219,0.0,1.0,76,0.00,,,0.01,0,HR-IXPWINDi_r2_v1.2.,2013-07-09 00:41:00,
2013-07-08 20:46:00,78.6,70.7,30.00,SW,219,0.0,1.0,77,0.00,,,0.01,0,HR-IXPWINDi_r2_v1.2.,2013-07-09 00:46:00,
2013-07-08 20:51:00,78.6,70.7,30.00,SW,219,0.0,1.0,77,0.00,,,0.01,0,HR-IXPWINDi_r2_v1.2.,2013-07-09 00:51:00,
2013-07-08 20:57:00,78.5,71.0,30.00,SW,219,0.0,0.0,78,0.00,,,0.01,0,HR-IXPWINDi_r2_v1.2.,2013-07-09 00:57:00,
2013-07-08 21:02:00,78.3,70.8,30.00,SW,219,0.0,0.0,78,0.00,,,0.01,0,HR-IXPWINDi_r2_v1.2.,2013-07-09 01:02:00,
2013-07-08 21:07:00,78.1,71.0,30.00,SW,219,0.0,0.0,79,0.00,,,0.01,0,HR-IXPWINDi_r2_v1.2.,2013-07-09 01:07:00,
2013-07-08 21:12:00,77.9,70.8,30.00,SW,219,0.0,0.0,79,0.00,,,0.01,0,HR-IXPWINDi_r2_v1.2.,2013-07-09 01:12:00,
2013-07-08 21:18:00,77.7,71.0,29.99,SW,219,0.0,0.0,80,0.00,,,0.01,0,HR-IXPWINDi_r2_v1.2.,2013-07-09 01:18:00,
2013-07-08 21:23:00,77.6,70.9,29.99,SW,219,0.0,0.0,80,0.00,,,0.01,0,HR-IXPWINDi_r2_v1.2.,2013-07-09 01:23:00,
2013-07-08 21:28:00,77.4,71.1,29.99,SW,219,0.0,0.0,81,0.00,,,0.01,0,HR-IXPWINDi_r2_v1.2.,2013-07-09 01:28:00,
2013-07-08 21:33:00,77.2,70.9,30.00,SW,219,0.0,0.0,81,0.00,,,0.01,0,HR-IXPWINDi_r2_v1.2.,2013-07-09 01:33:00,
2013-07-08 21:38:00,76.8,70.8,30.00,SW,219,0.0,0.0,82,0.00,,,0.01,0,HR-IXPWINDi_r2_v1.2.,2013-07-09 01:38:00,
2013-07-08 21:43:00,76.7,71.1,30.00,SW,219,0.0,0.0,83,0.00,,,0.01,0,HR-IXPWINDi_r2_v1.2.,2013-07-09 01:43:00,
2013-07-08 21:48:00,76.5,70.9,30.01,SW,219,0.0,0.0,83,0.00,,,0.01,0,HR-IXPWINDi_r2_v1.2.,2013-07-09 01:48:00,
2013-07-08 21:54:00,76.3,71.1,30.01,SW,219,0.0,0.0,84,0.00,,,0.01,0,HR-IXPWINDi_r2_v1.2.,2013-07-09 01:54:00,
2013-07-08 21:59:00,76.1,70.9,30.01,SW,219,0.0,0.0,84,0.00,,,0.01,0,HR-IXPWINDi_r2_v1.2.,2013-07-09 01:59:00,
2013-07-08 22:04:00,76.0,71.1,30.01,SW,219,0.0,0.0,85,0.00,,,0.01,0,HR-IXPWINDi_r2_v1.2.,2013-07-09 02:04:00,
2013-07-08 22:10:00,76.0,71.1,30.01,SW,219,0.0,0.0,85,0.00,,,0.01,0,HR-IXPWINDi_r2_v1.2.,2013-07-09 02:10:00,
2013-07-08 22:15:00,75.8,70.9,30.01,SW,219,0.0,0.0,85,0.00,,,0.01,0,HR-IXPWINDi_r2_v1.2.,2013-07-09 02:15:00,
2013-07-08 22:20:00,75.6,71.1,30.01,SW,219,0.0,1.0,86,0.00,,,0.01,0,HR-IXPWINDi_r2_v1.2.,2013-07-09 02:20:00,
2013-07-08 22:25:00,75.4,70.9,30.01,SW,219,0.0,1.0,86,0.00,,,0.01,0,HR-IXPWINDi_r2_v1.2.,2013-07-09 02:25:00,
2013-07-08 22:30:00,75.4,70.9,30.01,SW,219,0.0,1.0,86,0.00,,,0.01,0,HR-IXPWINDi_r2_v1.2.,2013-07-09 02:30:00,
2013-07-08 22:35:00,75.3,70.8,30.02,SW,219,0.0,1.0,86,0.00,,,0.01,0,HR-IXPWINDi_r2_v1.2.,2013-07-09 02:35:00,
2013-07-08 22:40:00,75.3,71.1,30.02,SW,219,0.0,0.0,87,0.00,,,0.01,0,HR-IXPWINDi_r2_v1.2.,2013-07-09 02:40:00,
2013-07-08 22:46:00,75.3,71.1,30.02,SW,219,0.0,1.0,87,0.00,,,0.01,0,HR-IXPWINDi_r2_v1.2.,2013-07-09 02:46:00,
2013-07-08 22:51:00,75.3,71.1,30.01,SW,219,0.0,4.0,87,0.00,,,0.01,0,HR-IXPWINDi_r2_v1.2.,2013-07-09 02:51:00,
2013-07-08 22:56:00,75.3,71.1,30.01,SW,219,0.0,4.0,87,0.00,,,0.01,0,HR-IXPWINDi_r2_v1.2.,2013-07-09 02:56:00,
2013-07-08 23:01:00,75.3,71.1,30.01,SW,219,0.0,1.0,87,0.00,,,0.01,0,HR-IXPWINDi_r2_v1.2.,2013-07-09 03:01:00,
2013-07-08 23:06:00,75.3,71.1,30.01,SW,219,0.0,2.0,87,0.00,,,0.01,0,HR-IXPWINDi_r2_v1.2.,2013-07-09 03:06:00,
2013-07-08 23:11:00,75.3,71.1,30.01,SW,219,0.0,2.0,87,0.00,,,0.01,0,HR-IXPWINDi_r2_v1.2.,2013-07-09 03:11:00,
2013-07-08 23:16:00,75.3,71.1,30.01,SW,219,0.0,1.0,87,0.00,,,0.01,0,HR-IXPWINDi_r2_v1.2.,2013-07-09 03:16:00,
2013-07-08 23:21:00,75.3,71.1,30.01,SW,219,0.0,1.0,87,0.00,,,0.01,0,HR-IXPWINDi_r2_v1.2.,2013-07-09 03:21:00,
2013-07-08 23:26:00,75.3,71.1,30.01,SW,219,0.0,1.0,87,0.00,,,0.01,0,HR-IXPWINDi_r2_v1.2.,2013-07-09 03:26:00,
2013-07-08 23:32:00,75.3,71.1,30.01,SW,219,0.0,0.0,87,0.00,,,0.01,0,HR-IXPWINDi_r2_v1.2.,2013-07-09 03:32:00,
2013-07-08 23:37:00,75.3,71.1,30.01,WNW,288,2.0,4.0,87,0.00,,,0.01,0,HR-IXPWINDi_r2_v1.2.,2013-07-09 03:37:00,
2013-07-08 23:42:00,75.1,70.6,30.01,NNW,345,5.0,5.0,86,0.00,,,0.01,0,HR-IXPWINDi_r2_v1.2.,2013-07-09 03:42:00,
2013-07-08 23:47:00,74.6,69.4,30.04,NW,316,2.0,11.0,84,0.00,,,0.01,0,HR-IXPWINDi_r2_v1.2.,2013-07-09 03:47:00,
2013-07-08 23:52:00,74.4,69.5,30.04,West,262,0.0,13.0,85,1.06,,,0.05,0,HR-IXPWINDi_r2_v1.2.,2013-07-09 03:52:00,